Weather History for KBHM - November, 2010

Change the Weather History Date:

Tuesday, November 2, 2010

  Actual Average Record
Temperature  
Mean Temperature 64 °F 59 °F  
Max Temperature 69 °F 70 °F 85 °F (2003)
Min Temperature 59 °F 48 °F 24 °F (1954)
Degree Days  
Heating Degree Days 1 7  
Month to date heating degree days 3 14  
Since 1 July heating degree days 73 141  
Cooling Degree Days 0 1  
Month to date cooling degree days 0 2  
Year to date cooling degree days 2576 2042  
Growing Degree Days 14 (Base 50)    
Moisture  
Dew Point 50 °F    
Average Humidity 61    
Maximum Humidity 73    
Minimum Humidity 48    
Precipitation  
Precipitation T in 0.14 in 1.20 in (1984)
Month to date precipitation T 0.27  
Year to date precipitation 41.70 44.69  
Snow  
Snow 0.00 in 0.00 in - ()
Month to date snowfall 0.0 0.0  
Since 1 July snowfall 0.0 0.0  
Since 1 September snowfall 0.0 0.0  
Snow Depth 0.00 in    
Sea Level Pressure  
Sea Level Pressure 30.13 in    
Wind  
Wind Speed 8 mph (East)    
Max Wind Speed 17 mph    
Max Gust Speed 25 mph    
Visibility 10 miles    
Events      
T = Trace of Precipitation, MM = Missing Value Source: NWS Daily Summary

Daily Weather History Graph

Daily Weather History Graph

Search for Another Location

Airport or City:

Trip Planner

Search our weather history database for the weather conditions in past years. The results will help you decide how hot, cold, wet, or windy it might be!

Date:

Astronomy

Nov. 02, 2010 Rise Set
Actual Time 7:06 AM CDT 5:53 PM CDT
Civil Twilight 6:40 AM CDT 6:19 PM CDT
Nautical Twilight 6:11 AM CDT 6:49 PM CDT
Astronomical Twilight 5:42 AM CDT 7:18 PM CDT
Moon 3:04 AM CDT 3:23 PM CDT
Length of Visible Light 11h 38m
Length of Day
10h 47m
Waning Crescent, 16% of the Moon is Illuminated
Nov 2
Waning Crescent
Nov 5
New
Nov 13
First Quarter
Nov 21
Full
Nov 28
Last Quarter

Hourly Weather History & Observations

Time (CDT) Temp. Dew Point Humidity Pressure Visibility Wind Dir Wind Speed Gust Speed Precip Events Conditions
12:53 AM 66.0 °F 46.9 °F 50% 30.15 in 10.0 mi East 8.1 mph - N/A   Mostly Cloudy
1:53 AM 66.0 °F 46.9 °F 50% 30.15 in 10.0 mi Variable 3.5 mph - N/A   Overcast
2:53 AM 64.0 °F 46.9 °F 54% 30.14 in 10.0 mi ENE 8.1 mph - N/A   Overcast
3:53 AM 63.0 °F 46.9 °F 56% 30.13 in 10.0 mi East 4.6 mph - N/A   Mostly Cloudy
4:53 AM 62.1 °F 46.9 °F 58% 30.15 in 10.0 mi East 8.1 mph - N/A   Overcast
5:53 AM 62.1 °F 46.9 °F 58% 30.15 in 10.0 mi East 8.1 mph - N/A   Mostly Cloudy
6:53 AM 60.1 °F 46.9 °F 62% 30.14 in 10.0 mi East 8.1 mph 18.4 mph N/A   Mostly Cloudy
7:53 AM 61.0 °F 46.9 °F 60% 30.17 in 10.0 mi East 6.9 mph 17.3 mph N/A   Overcast
8:53 AM 61.0 °F 48.0 °F 62% 30.16 in 10.0 mi ENE 9.2 mph 18.4 mph N/A   Overcast
9:53 AM 62.1 °F 48.9 °F 62% 30.18 in 10.0 mi ENE 8.1 mph 19.6 mph N/A   Overcast
10:13 AM 62.6 °F 48.2 °F 59% 30.18 in 10.0 mi East 11.5 mph 21.9 mph N/A   Overcast
10:53 AM 63.0 °F 50.0 °F 63% 30.17 in 10.0 mi East 8.1 mph 16.1 mph N/A   Overcast
11:53 AM 64.0 °F 52.0 °F 65% 30.17 in 10.0 mi ESE 12.7 mph 21.9 mph N/A   Overcast
12:19 PM 64.4 °F 53.6 °F 68% 30.16 in 10.0 mi East 10.4 mph 18.4 mph N/A   Overcast
12:53 PM 66.0 °F 53.1 °F 63% 30.12 in 10.0 mi East 8.1 mph - N/A   Mostly Cloudy
1:53 PM 64.0 °F 55.0 °F 73% 30.10 in 9.0 mi Variable 6.9 mph - 0.00 in   Overcast
2:53 PM 66.9 °F 53.1 °F 61% 30.08 in 10.0 mi East 5.8 mph - N/A   Overcast
3:53 PM 68.0 °F 53.1 °F 59% 30.07 in 10.0 mi ESE 9.2 mph - N/A   Mostly Cloudy
4:53 PM 68.0 °F 53.1 °F 59% 30.08 in 10.0 mi East 8.1 mph - N/A   Mostly Cloudy
5:53 PM 66.0 °F 52.0 °F 60% 30.08 in 10.0 mi East 8.1 mph - N/A   Scattered Clouds
6:53 PM 64.9 °F 51.1 °F 61% 30.09 in 10.0 mi East 9.2 mph 19.6 mph N/A   Scattered Clouds
7:53 PM 63.0 °F 50.0 °F 63% 30.11 in 10.0 mi East 9.2 mph 21.9 mph N/A   Scattered Clouds
8:53 PM 62.1 °F 48.9 °F 62% 30.10 in 10.0 mi East 11.5 mph 18.4 mph N/A   Overcast
9:53 PM 61.0 °F 48.9 °F 64% 30.11 in 10.0 mi East 9.2 mph 23.0 mph N/A   Mostly Cloudy
10:53 PM 60.1 °F 48.9 °F 67% 30.11 in 10.0 mi East 8.1 mph - N/A   Mostly Cloudy
11:53 PM 59.0 °F 48.0 °F 67% 30.08 in 10.0 mi East 12.7 mph 21.9 mph N/A   Overcast